Simultaneous Nadir Overpasses (SNOs) Predictions

Prediction of SNOs between LANDSAT-8 and METOP-A Satellite Orbit:

Table of predicted SNOs for the next 14.0 days since TLE Epoch: 11/7/2015
Index Date (LANDSAT-8) Time (LANDSAT-8) Lat,Lon (LANDSAT-8) SZA (LANDSAT-8 ) Date (METOP-A) Time (METOP-A) Lat,Lon (METOP-A) SZA (METOP-A ) Distance(km) Time Diff (sec)
1 11/08/2015 03:42:52 -81.11, -16.05 80.10 11/08/2015 03:42:03 -81.10, -16.20 80.14 2.71 49
2 11/08/2015 04:32:17 81.14, 152.06 99.99 11/08/2015 04:32:41 81.13, 152.09 100.00 0.57 24
3 11/10/2015 23:17:07 -81.10, 50.33 79.31 11/10/2015 23:16:28 -81.11, 50.49 79.31 2.87 39
4 11/11/2015 00:06:32 81.13,-141.58 100.77 11/11/2015 00:07:07 81.13,-141.64 100.78 1.01 35
5 11/13/2015 18:51:21 -81.11, 116.97 78.53 11/13/2015 18:50:53 -81.12, 117.13 78.52 2.72 28
6
